WA2TQI Weather Reports


time (UTC)temp
C
wind
direction
speed
KPH
gust
KPH
rain 1hr
cm
rain 24hr
cm
rain mn
cm
humidity
%
barometer
mb
20260504175247 22 163 9.7 17.7 0.00 0.00 0.00 41 1013.3
20260504174745 22 182 16.1 16.1 0.00 0.00 0.00 41 1013.1
20260504174243 21 270 4.8 11.3 0.00 0.00 0.00 44 1013.3
20260504173739 21 13 0.0 6.4 0.00 0.00 0.00 44 1013.4
20260504173236 21 197 3.2 9.7 0.00 0.00 0.00 42 1013.6
20260504172733 21 207 9.7 12.9 0.00 0.00 0.00 42 1013.4
20260504172229 21 140 4.8 16.1 0.00 0.00 0.00 43 1013.5
20260504171725 21 20 4.8 6.4 0.00 0.00 0.00 42 1013.7
20260504171223 21 187 6.4 16.1 0.00 0.00 0.00 43 1013.7
20260504170719 21 192 6.4 12.9 0.00 0.00 0.00 44 1013.7
20260504170217 21 225 6.4 11.3 0.00 0.00 0.00 43 1013.8
20260504160135 21 11 0.0 12.9 0.00 0.00 0.00 45 1014.8
20260504151102 20 152 3.2 14.5 0.00 0.00 0.00 49 1015.0
20260504150600 19 175 3.2 4.8 0.00 0.00 0.00 51 1014.8
20260504141026 18 288 3.2 3.2 0.00 0.00 0.00 59 1015.3
20260504140522 18 238 3.2 9.7 0.00 0.00 0.00 61 1015.3
20260504130447 15 229 3.2 9.7 0.00 0.00 0.00 69 1015.9
20260504110334 8 146 1.6 1.6 0.00 0.00 0.00 91 1016.6
20260504100251 7 242 0.0 0.0 0.00 0.00 0.00 90 1016.6
20260504081645 5 82 0.0 0.0 0.00 0.00 0.00 90 1016.4
20260504081141 5 128 0.0 0.0 0.00 0.00 0.00 90 1016.1
20260504080637 5 348 0.0 0.0 0.00 0.00 0.00 93 1016.3
20260504080134 5 314 0.0 0.0 0.00 0.00 0.00 93 1016.4
20260504050450 6 326 0.0 0.0 0.00 0.00 0.00 82 1015.9
20260504045947 6 326 0.0 0.0 0.00 0.00 0.00 80 1015.9
20260504045443 6 326 0.0 0.0 0.00 0.00 0.00 81 1016.0
20260504044939 6 326 0.0 0.0 0.00 0.00 0.00 80 1016.0
20260504044437 6 326 0.0 0.0 0.00 0.00 0.00 78 1015.8
20260504043934 6 326 0.0 0.0 0.00 0.00 0.00 78 1015.8
20260504043431 6 327 0.0 0.0 0.00 0.00 0.00 79 1015.8
20260504042929 6 327 0.0 0.0 0.00 0.00 0.00 77 1015.7
20260504042425 6 327 0.0 0.0 0.00 0.00 0.00 78 1015.9
20260504041921 6 327 0.0 0.0 0.00 0.00 0.00 78 1015.8
20260504041418 6 329 0.0 0.0 0.00 0.00 0.00 77 1015.7
20260504040914 7 329 0.0 0.0 0.00 0.00 0.00 76 1015.7
20260504040412 7 329 0.0 0.0 0.00 0.00 0.00 76 1015.3
20260504035908 7 329 0.0 0.0 0.00 0.00 0.00 75 1015.5
20260504035405 7 329 0.0 0.0 0.00 0.00 0.00 73 1015.5
20260504034901 7 356 0.0 0.0 0.00 0.00 0.00 74 1015.4
20260504034359 7 33 0.0 0.0 0.00 0.00 0.00 74 1015.3
20260504033856 7 35 0.0 0.0 0.00 0.00 0.00 74 1015.4
20260504033354 7 34 0.0 0.0 0.00 0.00 0.00 75 1015.1
20260504032850 7 307 0.0 0.0 0.00 0.00 0.00 73 1015.2
20260504032347 7 308 0.0 0.0 0.00 0.00 0.00 73 1015.2
20260504031844 7 308 0.0 0.0 0.00 0.00 0.00 72 1015.1
20260504031341 7 320 0.0 0.0 0.00 0.00 0.00 72 1015.2
20260504030837 7 321 0.0 0.0 0.00 0.00 0.00 72 1015.2
20260504030335 7 319 0.0 0.0 0.00 0.00 0.00 71 1015.3
20260504025831 7 319 0.0 0.0 0.00 0.00 0.00 70 1015.3
20260504025328 7 331 0.0 0.0 0.00 0.00 0.00 70 1015.3
20260504024825 7 335 0.0 0.0 0.00 0.00 0.00 70 1015.2
20260504024321 7 317 0.0 0.0 0.00 0.00 0.00 71 1015.4
20260504023818 8 315 0.0 0.0 0.00 0.00 0.00 68 1015.2
20260504023315 8 312 0.0 0.0 0.00 0.00 0.00 68 1015.4
20260504022811 8 312 0.0 0.0 0.00 0.00 0.00 68 1015.1
20260504022308 8 305 0.0 0.0 0.00 0.00 0.00 66 1015.2
20260504021804 8 305 0.0 0.0 0.00 0.00 0.00 66 1015.4
20260504021302 8 41 0.0 0.0 0.00 0.00 0.00 68 1015.1
20260504020758 8 58 0.0 0.0 0.00 0.00 0.00 69 1015.2
20260504020255 8 58 0.0 0.0 0.00 0.00 0.00 69 1015.3
20260504015751 8 47 0.0 0.0 0.00 0.00 0.00 68 1015.2
20260504015248 8 46 0.0 0.0 0.00 0.00 0.00 67 1015.2
20260504014743 9 50 0.0 0.0 0.00 0.00 0.00 66 1015.1
20260504014240 9 51 0.0 0.0 0.00 0.00 0.00 64 1015.2
20260504013738 9 51 0.0 0.0 0.00 0.00 0.00 63 1015.2
20260504013235 9 58 0.0 0.0 0.00 0.00 0.00 63 1015.1
20260504012732 10 81 0.0 0.0 0.00 0.00 0.00 64 1015.0
20260504012230 10 81 0.0 0.0 0.00 0.00 0.00 63 1014.7
20260504011726 10 81 0.0 0.0 0.00 0.00 0.00 60 1014.9
20260504011223 10 81 0.0 0.0 0.00 0.00 0.00 59 1014.7
20260504010719 11 80 0.0 0.0 0.00 0.00 0.00 60 1014.7
20260504010215 11 80 0.0 0.0 0.00 0.00 0.00 58 1014.7
20260504005711 11 79 0.0 0.0 0.00 0.00 0.00 57 1014.6
20260504005209 11 121 0.0 0.0 0.00 0.00 0.00 57 1014.6
20260504004707 11 116 0.0 0.0 0.00 0.00 0.00 55 1014.4
20260504004203 12 148 0.0 0.0 0.00 0.00 0.00 54 1014.2
20260504003700 12 189 0.0 0.0 0.00 0.00 0.00 52 1014.3
20260504003157 12 345 0.0 0.0 0.00 0.00 0.00 51 1014.3
20260504002653 12 29 0.0 0.0 0.00 0.00 0.00 51 1014.2
20260504002151 12 305 0.0 0.0 0.00 0.00 0.00 50 1014.1
20260504001649 12 280 0.0 3.2 0.00 0.00 0.00 51 1014.0
20260504001144 13 319 0.0 1.6 0.00 0.00 0.00 50 1014.0
20260504000642 13 109 0.0 0.0 0.00 0.00 0.00 48 1014.0
20260504000139 13 36 0.0 3.2 0.00 0.00 0.00 46 1013.9
20260503235637 13 326 0.0 0.0 0.00 0.00 0.00 46 1014.0
20260503235133 13 8 0.0 1.6 0.00 0.00 0.00 46 1013.9
20260503234632 14 281 0.0 3.2 0.00 0.00 0.00 44 1013.9
20260503234129 14 302 1.6 3.2 0.00 0.00 0.00 45 1013.8
20260503233626 14 280 0.0 1.6 0.00 0.00 0.00 44 1013.8
20260503233122 14 226 0.0 1.6 0.00 0.00 0.00 44 1013.8
20260503232619 14 137 0.0 4.8 0.00 0.00 0.00 43 1013.5
20260503232116 14 308 1.6 3.2 0.00 0.00 0.00 44 1013.8
20260503231614 15 308 3.2 6.4 0.00 0.00 0.00 43 1013.6
20260503231110 15 323 1.6 4.8 0.00 0.00 0.00 43 1013.5
20260503230608 15 21 3.2 3.2 0.00 0.00 0.00 43 1013.5
20260503230104 15 304 3.2 6.4 0.00 0.00 0.00 43 1013.4
20260503225601 15 248 3.2 4.8 0.00 0.00 0.00 42 1013.3
20260503225056 15 149 4.8 6.4 0.00 0.00 0.00 44 1013.4
20260503224554 15 100 3.2 6.4 0.00 0.00 0.00 42 1013.5
20260503224052 15 68 4.8 6.4 0.00 0.00 0.00 42 1013.4
20260503223550 15 328 1.6 4.8 0.00 0.00 0.00 42 1013.6
20260503223045 15 347 3.2 4.8 0.00 0.00 0.00 41 1013.4
20260503222543 15 277 4.8 6.4 0.00 0.00 0.00 40 1013.5
20260503222041 15 291 1.6 6.4 0.00 0.00 0.00 42 1013.5
20260503221539 15 297 1.6 3.2 0.00 0.00 0.00 42 1013.4
20260503221036 15 324 6.4 11.3 0.00 0.00 0.00 40 1013.4
20260503220532 15 0 3.2 6.4 0.00 0.00 0.00 41 1013.3
20260503220029 15 255 0.0 3.2 0.00 0.00 0.00 42 1013.3
20260503215526 15 311 0.0 3.2 0.00 0.00 0.00 42 1013.5
20260503215023 15 337 3.2 11.3 0.00 0.00 0.00 41 1013.5
20260503214522 15 331 1.6 3.2 0.00 0.00 0.00 42 1013.4
20260503214018 15 340 3.2 4.8 0.00 0.00 0.00 41 1013.4
20260503213517 15 324 3.2 11.3 0.00 0.00 0.00 41 1013.2
20260503213013 15 325 1.6 6.4 0.00 0.00 0.00 42 1013.5
20260503212510 15 285 3.2 4.8 0.00 0.00 0.00 41 1013.5
20260503212008 15 304 3.2 6.4 0.00 0.00 0.00 42 1013.3
20260503211504 15 142 4.8 6.4 0.00 0.00 0.00 43 1013.5
20260503211000 15 306 1.6 4.8 0.00 0.00 0.00 42 1013.4
20260503210457 15 335 3.2 6.4 0.00 0.00 0.00 42 1013.3
20260503205951 15 347 6.4 9.7 0.00 0.00 0.00 42 1013.6
20260503205449 15 9 3.2 9.7 0.00 0.00 0.00 43 1013.3
20260503204944 15 298 6.4 14.5 0.00 0.00 0.00 41 1013.5
20260503204442 15 294 3.2 17.7 0.00 0.00 0.00 41 1013.2
20260503203939 15 182 4.8 9.7 0.00 0.00 0.00 41 1013.5
20260503203437 15 69 3.2 11.3 0.00 0.00 0.00 41 1013.7
20260503202933 15 297 6.4 14.5 0.00 0.00 0.00 42 1013.4
20260503202431 15 275 4.8 11.3 0.00 0.00 0.00 41 1013.7
20260503201930 15 22 0.0 6.4 0.00 0.00 0.00 41 1013.5
20260503201426 16 331 4.8 6.4 0.00 0.00 0.00 41 1013.8
20260503200924 16 278 8.0 11.3 0.00 0.00 0.00 41 1013.9
20260503200420 15 294 1.6 12.9 0.00 0.00 0.00 41 1013.7
20260503195917 15 280 3.2 12.9 0.00 0.00 0.00 41 1013.7
20260503195414 15 329 1.6 12.9 0.00 0.00 0.00 42 1013.7
20260503194911 15 8 3.2 12.9 0.00 0.00 0.00 41 1013.7
20260503194407 15 357 6.4 9.7 0.00 0.00 0.00 40 1013.9
20260503193903 15 246 6.4 11.3 0.00 0.00 0.00 40 1013.7
20260503193359 15 42 4.8 6.4 0.00 0.00 0.00 40 1013.5
20260503192854 15 314 3.2 9.7 0.00 0.00 0.00 41 1013.9
20260503192350 15 297 1.6 4.8 0.00 0.00 0.00 41 1014.0
20260503191847 15 294 4.8 9.7 0.00 0.00 0.00 42 1014.1
20260503191344 15 229 3.2 4.8 0.00 0.00 0.00 42 1014.1
20260503190841 14 265 9.7 17.7 0.00 0.00 0.00 43 1014.1
20260503190338 15 324 3.2 11.3 0.00 0.00 0.00 41 1014.2
20260503185835 15 346 3.2 9.7 0.00 0.00 0.00 41 1014.3
20260503185332 15 340 1.6 11.3 0.00 0.00 0.00 41 1014.2
20260503184831 15 314 6.4 14.5 0.00 0.00 0.00 42 1014.3
20260503184327 14 313 8.0 11.3 0.00 0.00 0.00 42 1014.2
20260503183823 14 54 6.4 11.3 0.00 0.00 0.00 42 1014.4
20260503183321 14 284 4.8 12.9 0.00 0.00 0.00 41 1014.7
20260503182818 13 338 3.2 11.3 0.00 0.00 0.00 42 1014.4
20260503182317 14 305 6.4 16.1 0.00 0.00 0.00 42 1014.6
20260503181814 14 331 1.6 6.4 0.00 0.00 0.00 43 1014.5
20260503181311 14 298 8.0 11.3 0.00 0.00 0.00 42 1014.6
20260503180807 14 325 3.2 11.3 0.00 0.00 0.00 44 1014.6
20260503180306 14 253 3.2 14.5 0.00 0.00 0.00 44 1014.7
20260503175801 14 327 6.4 11.3 0.00 0.00 0.00 44 1014.5